BAW729 LOWW-EGLL

Flight info

Callsign BAW729
Flight time 1h 32m
Altitude 36000
Route BUWUT DCT DITIS DCT RAPET DCT MASEK DCT ARPEG DCT ABNED L980 LOGAN
Aircraft A320/M-SDE3FGHIRWY/LB1

Departure

Time 2026-04-22 12:52
Airport Vienna International Airport (LOWW)

Arrival

Time 2026-04-22 14:25
Airport London Heathrow Airport (EGLL)
Time Latitude Longitude Altitude Speed Heading
2026-04-22 12:36 48.11789 16.56038 617 ft 0 kts 38°
2026-04-22 12:36 48.11790 16.56039 617 ft 0 kts 38°
2026-04-22 12:40 48.11790 16.56038 609 ft 0 kts 38°
2026-04-22 12:41 48.11789 16.56038 609 ft 0 kts 38°
2026-04-22 12:41 48.11790 16.56039 610 ft 0 kts 38°
2026-04-22 12:46 48.11787 16.56035 617 ft 3 kts 38°
2026-04-22 12:46 48.11766 16.56010 625 ft 4 kts 44°
2026-04-22 12:46 48.11748 16.55980 613 ft 4 kts 56°
2026-04-22 12:46 48.11738 16.55946 622 ft 4 kts 92°
2026-04-22 12:47 48.11739 16.55930 623 ft 3 kts 116°
2026-04-22 12:48 48.11738 16.55933 620 ft 3 kts 116°
2026-04-22 12:49 48.11704 16.56040 610 ft 19 kts 116°
2026-04-22 12:49 48.11637 16.56245 614 ft 24 kts 117°
2026-04-22 12:49 48.11561 16.56476 614 ft 26 kts 116°
2026-04-22 12:49 48.11482 16.56720 617 ft 27 kts 116°
2026-04-22 12:50 48.11398 16.56983 620 ft 29 kts 116°
2026-04-22 12:50 48.11312 16.57241 616 ft 18 kts 115°
2026-04-22 12:50 48.11217 16.57264 613 ft 14 kts 211°
2026-04-22 12:50 48.11132 16.57200 615 ft 14 kts 204°
2026-04-22 12:51 48.11046 16.57134 618 ft 7 kts 219°
2026-04-22 12:51 48.11055 16.57103 612 ft 5 kts 300°
2026-04-22 12:51 48.11144 16.56835 621 ft 62 kts 297°
2026-04-22 12:51 48.11417 16.55993 616 ft 116 kts 296°
2026-04-22 12:52 48.11839 16.54700 619 ft 159 kts 296°
2026-04-22 12:52 48.12270 16.53156 1159 ft 160 kts 287°
2026-04-22 12:52 48.12319 16.51500 1862 ft 163 kts 264°
2026-04-22 12:52 48.12107 16.49725 2122 ft 184 kts 264°
2026-04-22 12:53 48.11840 16.47756 2444 ft 202 kts 264°
2026-04-22 12:53 48.11760 16.45601 2738 ft 215 kts 285°
2026-04-22 12:53 48.12025 16.43283 3115 ft 238 kts 282°
2026-04-22 12:53 48.12295 16.40749 3696 ft 251 kts 282°
2026-04-22 12:54 48.12562 16.38138 4539 ft 256 kts 283°
2026-04-22 12:54 48.12838 16.35500 5419 ft 258 kts 286°
2026-04-22 12:54 48.13518 16.33056 6274 ft 255 kts 308°
2026-04-22 12:54 48.14713 16.31114 7123 ft 255 kts 317°
2026-04-22 12:55 48.15550 16.29865 7597 ft 258 kts 318°
2026-04-22 12:55 48.17281 16.27298 8592 ft 265 kts 318°
2026-04-22 12:55 48.18607 16.25334 9333 ft 271 kts 319°
2026-04-22 12:55 48.19954 16.23333 10092 ft 275 kts 319°
2026-04-22 12:56 48.21331 16.21283 10603 ft 287 kts 318°
2026-04-22 12:56 48.22808 16.19087 10774 ft 310 kts 319°
2026-04-22 12:56 48.24347 16.16792 11207 ft 321 kts 318°
2026-04-22 12:56 48.25961 16.14372 11849 ft 326 kts 318°
2026-04-22 12:57 48.27548 16.11983 12486 ft 329 kts 318°
2026-04-22 12:57 48.29173 16.09536 13156 ft 333 kts 318°
2026-04-22 12:57 48.30819 16.07064 13809 ft 336 kts 318°
2026-04-22 12:57 48.32481 16.04566 14408 ft 339 kts 318°
2026-04-22 12:58 48.34159 16.02041 14970 ft 343 kts 318°
2026-04-22 12:58 48.35851 15.99489 15544 ft 346 kts 318°
2026-04-22 12:58 48.37559 15.96915 16098 ft 349 kts 318°
2026-04-22 12:58 48.39284 15.94313 16649 ft 353 kts 318°
2026-04-22 12:59 48.41026 15.91681 17199 ft 356 kts 318°
2026-04-22 12:59 48.42783 15.89025 17754 ft 360 kts 318°
2026-04-22 12:59 48.44557 15.86340 18307 ft 363 kts 318°
2026-04-22 12:59 48.46342 15.83633 18832 ft 366 kts 319°
2026-04-22 13:00 48.48147 15.80897 19351 ft 369 kts 319°
2026-04-22 13:00 48.49963 15.78143 19873 ft 372 kts 319°
2026-04-22 13:00 48.51795 15.75363 20393 ft 375 kts 319°
2026-04-22 13:00 48.53636 15.72560 20908 ft 378 kts 319°
2026-04-22 13:01 48.55490 15.69731 21427 ft 380 kts 319°
2026-04-22 13:01 48.57358 15.66884 21931 ft 383 kts 318°
2026-04-22 13:01 48.58602 15.64984 22264 ft 385 kts 318°
2026-04-22 13:01 48.60494 15.62094 22766 ft 388 kts 318°
2026-04-22 13:02 48.63043 15.58191 23414 ft 392 kts 318°
2026-04-22 13:02 48.64315 15.56241 23727 ft 394 kts 318°
2026-04-22 13:02 48.66244 15.53284 24130 ft 396 kts 318°
2026-04-22 13:02 48.68188 15.50303 24529 ft 399 kts 318°
2026-04-22 13:03 48.70142 15.47306 24918 ft 401 kts 318°
2026-04-22 13:03 48.72104 15.44294 25299 ft 403 kts 318°
2026-04-22 13:03 48.74079 15.41257 25652 ft 406 kts 318°
2026-04-22 13:03 48.76061 15.38202 26033 ft 408 kts 318°
2026-04-22 13:04 48.78050 15.35123 26403 ft 410 kts 318°
2026-04-22 13:04 48.80040 15.32011 26764 ft 413 kts 315°
2026-04-22 13:04 48.81823 15.28565 27114 ft 418 kts 309°
2026-04-22 13:04 48.83523 15.24974 27464 ft 420 kts 309°
2026-04-22 13:05 48.85230 15.21363 27819 ft 422 kts 309°
2026-04-22 13:05 48.86944 15.17729 28166 ft 424 kts 309°
2026-04-22 13:05 48.88663 15.14077 28505 ft 426 kts 309°
2026-04-22 13:05 48.90393 15.10404 28832 ft 428 kts 309°
2026-04-22 13:06 48.92152 15.06737 29151 ft 430 kts 310°
2026-04-22 13:06 48.93939 15.03079 29492 ft 432 kts 310°
2026-04-22 13:06 48.95744 14.99413 29835 ft 433 kts 310°
2026-04-22 13:06 48.97548 14.95746 30307 ft 432 kts 310°
2026-04-22 13:07 48.99346 14.92082 30706 ft 431 kts 310°
2026-04-22 13:07 49.01136 14.88424 31060 ft 432 kts 310°
2026-04-22 13:07 49.02925 14.84747 31383 ft 432 kts 310°
2026-04-22 13:07 49.04712 14.81062 31747 ft 432 kts 310°
2026-04-22 13:08 49.06494 14.77375 32134 ft 432 kts 310°
2026-04-22 13:08 49.08273 14.73691 32542 ft 431 kts 310°
2026-04-22 13:08 49.10049 14.70014 32909 ft 430 kts 310°
2026-04-22 13:08 49.11820 14.66348 33336 ft 428 kts 310°
2026-04-22 13:09 49.13582 14.62689 33759 ft 427 kts 310°
2026-04-22 13:09 49.15338 14.59035 34157 ft 426 kts 310°
2026-04-22 13:09 49.17087 14.55384 34484 ft 426 kts 310°
2026-04-22 13:09 49.18834 14.51733 34771 ft 425 kts 310°
2026-04-22 13:10 49.20582 14.48083 35040 ft 425 kts 310°
2026-04-22 13:10 49.22331 14.44427 35305 ft 425 kts 309°
2026-04-22 13:10 49.24076 14.40771 35562 ft 425 kts 309°
2026-04-22 13:10 49.25796 14.37162 35802 ft 425 kts 309°
2026-04-22 13:11 49.27536 14.33498 36011 ft 426 kts 309°
2026-04-22 13:11 49.29277 14.29832 36220 ft 426 kts 309°
2026-04-22 13:11 49.31051 14.26099 36275 ft 430 kts 309°
2026-04-22 13:12 49.34577 14.18679 36278 ft 435 kts 309°
2026-04-22 13:12 49.38140 14.11152 36278 ft 436 kts 309°
2026-04-22 13:13 49.41692 14.03600 36291 ft 436 kts 309°
2026-04-22 13:13 49.45241 13.96036 36256 ft 436 kts 309°
2026-04-22 13:14 49.48789 13.88467 36274 ft 436 kts 309°
2026-04-22 13:14 49.56131 13.72726 36297 ft 436 kts 309°
2026-04-22 13:15 49.63191 13.57502 36283 ft 436 kts 309°
2026-04-22 13:15 49.70220 13.42241 36298 ft 437 kts 308°
2026-04-22 13:16 49.77256 13.26907 36304 ft 437 kts 308°
2026-04-22 13:16 49.84275 13.11524 36305 ft 438 kts 308°
2026-04-22 13:17 49.91261 12.96076 36308 ft 438 kts 308°
2026-04-22 13:17 49.98217 12.80691 36279 ft 438 kts 308°
2026-04-22 13:18 50.05190 12.65113 36295 ft 439 kts 308°
2026-04-22 13:18 50.12158 12.49474 36316 ft 439 kts 308°
2026-04-22 13:19 50.18930 12.33615 36326 ft 442 kts 299°
2026-04-22 13:19 50.22937 12.15326 36337 ft 446 kts 291°
2026-04-22 13:20 50.26781 11.96897 36322 ft 446 kts 291°
2026-04-22 13:20 50.30579 11.78418 36331 ft 447 kts 291°
2026-04-22 13:21 50.34363 11.59873 36317 ft 447 kts 291°
2026-04-22 13:21 50.38110 11.41321 36336 ft 446 kts 291°
2026-04-22 13:22 50.41824 11.22761 36334 ft 446 kts 290°
2026-04-22 13:22 50.45502 11.04184 36334 ft 446 kts 290°
2026-04-22 13:23 50.49150 10.85601 36342 ft 446 kts 290°
2026-04-22 13:23 50.52774 10.66983 36331 ft 445 kts 290°
2026-04-22 13:24 50.56352 10.48361 36344 ft 445 kts 290°
2026-04-22 13:24 50.59916 10.29736 36344 ft 444 kts 290°
2026-04-22 13:25 50.63434 10.11102 36339 ft 444 kts 290°
2026-04-22 13:25 50.66919 9.92451 36344 ft 443 kts 289°
2026-04-22 13:26 50.70366 9.73789 36339 ft 443 kts 289°
2026-04-22 13:26 50.73863 9.55172 36344 ft 441 kts 292°
2026-04-22 13:27 50.78116 9.37038 36327 ft 440 kts 294°
2026-04-22 13:27 50.82223 9.18939 36341 ft 440 kts 292°
2026-04-22 13:28 50.86303 9.00674 36346 ft 440 kts 292°
2026-04-22 13:28 50.90364 8.82397 36349 ft 440 kts 292°
2026-04-22 13:29 50.94394 8.64080 36347 ft 440 kts 292°
2026-04-22 13:29 50.98398 8.45745 36335 ft 440 kts 292°
2026-04-22 13:30 51.02334 8.27348 36349 ft 440 kts 290°
2026-04-22 13:30 51.05776 8.08659 36342 ft 441 kts 289°
2026-04-22 13:31 51.09199 7.89949 36333 ft 441 kts 289°
2026-04-22 13:31 51.12625 7.71216 36345 ft 441 kts 289°
2026-04-22 13:32 51.15907 7.52993 36333 ft 440 kts 289°
2026-04-22 13:32 51.19268 7.34208 36340 ft 440 kts 289°
2026-04-22 13:33 51.22581 7.15418 36355 ft 440 kts 288°
2026-04-22 13:33 51.25864 6.96636 36356 ft 439 kts 288°
2026-04-22 13:34 51.29116 6.77854 36361 ft 439 kts 288°
2026-04-22 13:34 51.32332 6.59049 36356 ft 438 kts 288°
2026-04-22 13:35 51.35516 6.40256 36370 ft 437 kts 288°
2026-04-22 13:35 51.38664 6.21444 36356 ft 437 kts 288°
2026-04-22 13:36 51.41778 6.02651 36385 ft 436 kts 288°
2026-04-22 13:36 51.44860 5.83863 36377 ft 436 kts 288°
2026-04-22 13:37 51.47914 5.65057 36378 ft 435 kts 287°
2026-04-22 13:37 51.50895 5.46369 36365 ft 435 kts 287°
2026-04-22 13:38 51.53892 5.27551 36347 ft 435 kts 287°
2026-04-22 13:38 51.58293 4.99355 36371 ft 433 kts 287°
2026-04-22 13:39 51.61189 4.80563 36352 ft 432 kts 287°
2026-04-22 13:39 51.63433 4.65875 36370 ft 432 kts 286°
2026-04-22 13:40 51.64843 4.56472 36370 ft 432 kts 286°
2026-04-22 13:40 51.66252 4.47072 36370 ft 432 kts 286°
2026-04-22 13:41 51.67656 4.37670 36366 ft 432 kts 286°
2026-04-22 13:41 51.69051 4.28261 36366 ft 432 kts 286°
2026-04-22 13:42 51.70442 4.18848 36369 ft 432 kts 286°
2026-04-22 13:42 51.71825 4.09425 36370 ft 432 kts 286°
2026-04-22 13:43 51.73178 3.99997 36395 ft 432 kts 285°
2026-04-22 13:43 51.74537 3.90585 36380 ft 431 kts 286°
2026-04-22 13:44 51.75914 3.81238 36369 ft 431 kts 286°
2026-04-22 13:44 51.77274 3.71803 36376 ft 432 kts 285°
2026-04-22 13:45 51.78614 3.62356 36383 ft 432 kts 285°
2026-04-22 13:45 51.79951 3.52891 36387 ft 432 kts 285°
2026-04-22 13:46 51.81283 3.43427 36395 ft 432 kts 285°
2026-04-22 13:46 51.82605 3.33950 36388 ft 432 kts 285°
2026-04-22 13:47 51.83700 3.26012 36392 ft 432 kts 285°
2026-04-22 13:47 51.84697 3.16509 36396 ft 434 kts 274°
2026-04-22 13:48 51.84249 3.06734 36394 ft 437 kts 267°
2026-04-22 13:48 51.83613 2.96953 36394 ft 437 kts 267°
2026-04-22 13:49 51.82969 2.87183 36081 ft 435 kts 266°
2026-04-22 13:49 51.82644 2.82346 35832 ft 431 kts 266°
2026-04-22 13:49 51.82319 2.77547 35588 ft 429 kts 267°
2026-04-22 13:50 51.81994 2.72768 35336 ft 426 kts 266°
2026-04-22 13:50 51.81673 2.68022 35097 ft 424 kts 266°
2026-04-22 13:50 51.81349 2.63300 34858 ft 421 kts 266°
2026-04-22 13:50 51.81025 2.58606 34614 ft 419 kts 266°
2026-04-22 13:51 51.80702 2.53947 34363 ft 416 kts 266°
2026-04-22 13:51 51.80381 2.49315 33854 ft 413 kts 266°
2026-04-22 13:51 51.80060 2.44724 33381 ft 410 kts 267°
2026-04-22 13:51 51.79736 2.40171 32897 ft 407 kts 266°
2026-04-22 13:52 51.79413 2.35648 32428 ft 404 kts 266°
2026-04-22 13:52 51.79093 2.31151 31977 ft 401 kts 266°
2026-04-22 13:52 51.78770 2.26689 31526 ft 399 kts 266°
2026-04-22 13:52 51.78447 2.22248 31077 ft 397 kts 266°
2026-04-22 13:53 51.78149 2.17828 30650 ft 395 kts 267°
2026-04-22 13:53 51.77888 2.13425 30183 ft 393 kts 267°
2026-04-22 13:53 51.77645 2.09051 29776 ft 390 kts 269°
2026-04-22 13:53 51.77410 2.04760 29373 ft 387 kts 268°
2026-04-22 13:54 51.77170 2.00450 28987 ft 384 kts 266°
2026-04-22 13:54 51.76924 1.96163 28603 ft 382 kts 266°
2026-04-22 13:54 51.76672 1.91906 28214 ft 380 kts 268°
2026-04-22 13:54 51.76417 1.87678 27839 ft 377 kts 267°
2026-04-22 13:55 51.76159 1.83480 27460 ft 375 kts 268°
2026-04-22 13:55 51.75897 1.79304 27080 ft 373 kts 267°
2026-04-22 13:55 51.75635 1.75152 26701 ft 371 kts 266°
2026-04-22 13:55 51.75375 1.71026 26318 ft 368 kts 265°
2026-04-22 13:56 51.75114 1.66928 25927 ft 366 kts 265°
2026-04-22 13:56 51.74856 1.62850 25538 ft 364 kts 266°
2026-04-22 13:56 51.74601 1.58788 25075 ft 365 kts 265°
2026-04-22 13:56 51.74343 1.54681 24503 ft 370 kts 264°
2026-04-22 13:57 51.74083 1.50536 23939 ft 374 kts 263°
2026-04-22 13:57 51.73817 1.46344 23318 ft 376 kts 263°
2026-04-22 13:57 51.73547 1.42145 22754 ft 377 kts 264°
2026-04-22 13:57 51.73273 1.37936 22187 ft 378 kts 264°
2026-04-22 13:58 51.72997 1.33719 21619 ft 379 kts 264°
2026-04-22 13:58 51.72716 1.29489 21094 ft 378 kts 263°
2026-04-22 13:58 51.72436 1.25276 20548 ft 378 kts 263°
2026-04-22 13:58 51.72153 1.21039 19926 ft 382 kts 262°
2026-04-22 13:59 51.71868 1.16785 19534 ft 378 kts 262°
2026-04-22 13:59 51.71589 1.12587 19109 ft 373 kts 263°
2026-04-22 13:59 51.71317 1.08517 18336 ft 369 kts 262°
2026-04-22 13:59 51.71039 1.04414 17583 ft 364 kts 262°
2026-04-22 14:00 51.70766 1.00422 17080 ft 353 kts 261°
2026-04-22 14:00 51.70501 0.96536 16565 ft 344 kts 261°
2026-04-22 14:00 51.70241 0.92751 16303 ft 339 kts 261°
2026-04-22 14:00 51.69973 0.88924 15615 ft 347 kts 261°
2026-04-22 14:01 51.69698 0.85055 15163 ft 348 kts 261°
2026-04-22 14:01 51.69482 0.82013 14786 ft 349 kts 261°
2026-04-22 14:01 51.69201 0.78017 14311 ft 350 kts 262°
2026-04-22 14:01 51.68927 0.74129 13833 ft 349 kts 261°
2026-04-22 14:02 51.68657 0.70311 13400 ft 347 kts 261°
2026-04-22 14:02 51.68383 0.66474 12951 ft 345 kts 261°
2026-04-22 14:02 51.68103 0.62582 12523 ft 343 kts 260°
2026-04-22 14:02 51.67824 0.58744 12010 ft 345 kts 261°
2026-04-22 14:03 51.67550 0.54991 11742 ft 338 kts 260°
2026-04-22 14:03 51.67281 0.51269 11554 ft 329 kts 261°
2026-04-22 14:03 51.67023 0.47661 11407 ft 320 kts 261°
2026-04-22 14:03 51.66767 0.44126 11118 ft 316 kts 260°
2026-04-22 14:04 51.66511 0.40620 10787 ft 314 kts 260°
2026-04-22 14:04 51.66252 0.37122 10425 ft 315 kts 260°
2026-04-22 14:04 51.65992 0.33638 10111 ft 312 kts 259°
2026-04-22 14:04 51.65731 0.30175 9752 ft 311 kts 261°
2026-04-22 14:05 51.65475 0.26741 9436 ft 308 kts 260°
2026-04-22 14:05 51.65216 0.23311 9073 ft 307 kts 260°
2026-04-22 14:05 51.64734 0.16866 8628 ft 277 kts 260°
2026-04-22 14:06 51.64511 0.13814 8185 ft 273 kts 261°
2026-04-22 14:06 51.64326 0.10778 7700 ft 272 kts 262°
2026-04-22 14:06 51.64165 0.07761 7282 ft 267 kts 262°
2026-04-22 14:06 51.64016 0.04834 7334 ft 265 kts 262°
2026-04-22 14:07 51.63863 0.01876 7070 ft 266 kts 262°
2026-04-22 14:07 51.63706 -0.01085 6905 ft 264 kts 262°
2026-04-22 14:07 51.63546 -0.04023 6623 ft 263 kts 262°
2026-04-22 14:07 51.63384 -0.06944 6309 ft 263 kts 262°
2026-04-22 14:08 51.63218 -0.09875 6009 ft 262 kts 262°
2026-04-22 14:08 51.63060 -0.12704 6257 ft 254 kts 262°
2026-04-22 14:08 51.62895 -0.15578 6726 ft 260 kts 261°
2026-04-22 14:08 51.62723 -0.18515 7061 ft 265 kts 261°
2026-04-22 14:09 51.62550 -0.21475 7135 ft 266 kts 262°
2026-04-22 14:09 51.62379 -0.24429 7146 ft 265 kts 261°
2026-04-22 14:09 51.62209 -0.27379 7153 ft 264 kts 261°
2026-04-22 14:09 51.62039 -0.30328 7143 ft 265 kts 261°
2026-04-22 14:10 51.61866 -0.33286 7001 ft 266 kts 261°
2026-04-22 14:10 51.61693 -0.36242 7014 ft 265 kts 261°
2026-04-22 14:10 51.61521 -0.39190 7016 ft 265 kts 261°
2026-04-22 14:10 51.61346 -0.42147 7009 ft 265 kts 261°
2026-04-22 14:11 51.61172 -0.45096 7019 ft 265 kts 261°
2026-04-22 14:11 51.60994 -0.48044 7010 ft 265 kts 261°
2026-04-22 14:11 51.60815 -0.50998 7009 ft 266 kts 261°
2026-04-22 14:11 51.60635 -0.53952 7008 ft 265 kts 261°
2026-04-22 14:12 51.60453 -0.56910 7012 ft 266 kts 261°
2026-04-22 14:12 51.60274 -0.59867 7009 ft 266 kts 261°
2026-04-22 14:12 51.60094 -0.62826 7008 ft 268 kts 261°
2026-04-22 14:12 51.59903 -0.65866 7003 ft 270 kts 261°
2026-04-22 14:13 51.59717 -0.68830 7009 ft 265 kts 261°
2026-04-22 14:13 51.59536 -0.71776 7005 ft 265 kts 261°
2026-04-22 14:13 51.59357 -0.74725 7010 ft 265 kts 261°
2026-04-22 14:13 51.59174 -0.77667 7001 ft 264 kts 261°
2026-04-22 14:14 51.58962 -0.80607 7000 ft 264 kts 252°
2026-04-22 14:14 51.58261 -0.83259 7004 ft 257 kts 239°
2026-04-22 14:14 51.57754 -0.86033 6998 ft 264 kts 259°
2026-04-22 14:14 51.57498 -0.88967 6832 ft 268 kts 257°
2026-04-22 14:15 51.57171 -0.91913 6479 ft 267 kts 256°
2026-04-22 14:15 51.56774 -0.94805 6124 ft 262 kts 243°
2026-04-22 14:15 51.55774 -0.97104 5777 ft 245 kts 212°
2026-04-22 14:15 51.54295 -0.98214 5423 ft 230 kts 185°
2026-04-22 14:16 51.52751 -0.98669 5072 ft 223 kts 181°
2026-04-22 14:16 51.51237 -0.99014 4699 ft 216 kts 177°
2026-04-22 14:16 51.49846 -0.98612 4335 ft 197 kts 144°
2026-04-22 14:16 51.48854 -0.97208 4022 ft 184 kts 128°
2026-04-22 14:17 51.48052 -0.95727 4007 ft 171 kts 125°
2026-04-22 14:17 51.47519 -0.94099 4000 ft 164 kts 99°
2026-04-22 14:17 51.47483 -0.92276 3999 ft 164 kts 90°
2026-04-22 14:17 51.47500 -0.90448 3998 ft 164 kts 90°
2026-04-22 14:18 51.47515 -0.88615 3991 ft 165 kts 90°
2026-04-22 14:18 51.47529 -0.86777 3820 ft 163 kts 90°
2026-04-22 14:18 51.47543 -0.84950 3585 ft 165 kts 90°
2026-04-22 14:18 51.47556 -0.83092 3295 ft 168 kts 89°
2026-04-22 14:19 51.47569 -0.81219 3118 ft 167 kts 89°
2026-04-22 14:19 51.47581 -0.79385 3017 ft 162 kts 89°
2026-04-22 14:19 51.47593 -0.77636 3023 ft 150 kts 89°
2026-04-22 14:19 51.47603 -0.75999 3031 ft 142 kts 88°
2026-04-22 14:20 51.47620 -0.73274 2996 ft 137 kts 89°
2026-04-22 14:20 51.47630 -0.71741 2910 ft 139 kts 89°
2026-04-22 14:20 51.47639 -0.70189 2752 ft 139 kts 89°
2026-04-22 14:21 51.47657 -0.67124 2398 ft 135 kts 88°
2026-04-22 14:21 51.47666 -0.65613 2231 ft 136 kts 88°
2026-04-22 14:22 51.47682 -0.62666 1863 ft 128 kts 88°
2026-04-22 14:22 51.47688 -0.61300 1694 ft 121 kts 89°
2026-04-22 14:22 51.47712 -0.58641 1368 ft 118 kts 88°
2026-04-22 14:23 51.47720 -0.57294 1163 ft 123 kts 88°
2026-04-22 14:23 51.47730 -0.55922 1016 ft 126 kts 88°
2026-04-22 14:23 51.47732 -0.54482 872 ft 132 kts 89°
2026-04-22 14:23 51.47738 -0.53008 697 ft 129 kts 89°
2026-04-22 14:24 51.47747 -0.51630 505 ft 119 kts 90°
2026-04-22 14:24 51.47748 -0.50296 351 ft 122 kts 90°
2026-04-22 14:24 51.47756 -0.49009 217 ft 122 kts 90°
2026-04-22 14:24 51.47755 -0.47713 91 ft 113 kts 88°
2026-04-22 14:25 51.47759 -0.46668 92 ft 71 kts 91°
2026-04-22 14:25 51.47759 -0.46257 90 ft 0 kts 89°